Meteo Giornale » Osservazioni meteo Italia » Bergamo-Orio Al Serio

ore: 04:20 - Osservazioni Meteo Bergamo-Orio Al Serio
Lat. 45° 40' N Lon. 9° 42' E Alt. 238 metri s.l.m.

coperto_pioggia Europe/Rome

16 °C

Pioggia Debole

Temp. 24 Ore

12 °C

22 °C

Nord

11.1 Km/h

Dew point 15 °C

Umidità 93 %

Visibilità  10 Km

Il sole sorge alle ore 07:48

Il sole tramonta alle ore 18:22

Data e Ora Cielo e Fenomeni T °C DP °C Um. % Pres. hPa Vis. km Vento km/h
Oggi h: 04:20 coperto_pioggia Pioggia Debole 16 15 93 1017 10 N 11.1
Oggi h: 03:50 coperto_pioggia Pioggia Debole 16 14 87 1018 10 N 3.7
Oggi h: 03:20 coperto_pioggia Pioggia Debole 16 14 87 1018 10 N 7.4
Oggi h: 02:50 nuvoloso Nuvoloso 16 14 87 1018 10 N 5.5
Oggi h: 01:50 nuvoloso Nuvoloso 16 14 87 1017 10 N 9.3
Oggi h: 01:20 nuvoloso Nuvoloso 16 14 87 1018 10 N 7.4
Oggi h: 00:50 nuvoloso Nuvoloso 16 14 87 1018 10 N 5.5
Oggi h: 00:20 nuvoloso Nuvoloso 16 14 87 1018 10 N 3.7
Ieri h: 23:50 molto_nuvoloso Molto Nuvoloso 16 14 87 1018 10 N/NE 7.4
Ieri h: 23:20 molto_nuvoloso Molto Nuvoloso 16 15 93 1018 10 N 3.7
Ieri h: 22:50 molto_nuvoloso Molto Nuvoloso 16 15 93 1018 10 N 3.7
Ieri h: 22:20 molto_nuvoloso Molto Nuvoloso 16 15 93 1018 10 N/NE 7.4
Ieri h: 21:50 molto_nuvoloso Molto Nuvoloso 16 15 93 1018 10 N/NE 9.3
Ieri h: 21:20 nuvoloso Nuvoloso 15 14 93 1018 10 N 5.5
Ieri h: 20:50 sereno Sereno 15 15 100 1018 9 N 3.7
Ieri h: 20:20 sereno Sereno 16 15 93 1018 8 N/NE 9.3
Ieri h: 19:50 sereno Sereno 16 15 93 1018 8 N 5.5
Ieri h: 19:20 foschia Foschia 17 15 88 1019 5 N 3.7
Ieri h: 18:50 foschia Foschia 19 16 82 1019 5 SO 7.4
Ieri h: 18:20 sereno Sereno 19 15 77 1019 6 N 5.5
Ieri h: 17:50 sereno Sereno 20 15 72 1019 10 N 5.5
Ieri h: 17:20 sereno Sereno 20 15 72 1018 10 S/SE 7.4
Ieri h: 16:50 sereno Sereno 21 15 68 1018 10 SE 7.4
Ieri h: 16:20 sereno Sereno 22 15 64 1018 10 N 5.5
Ieri h: 15:50 sereno Sereno 22 14 60 1018 10 N 5.5
Ieri h: 15:20 sereno Sereno 21 14 64 1018 10 N 5.5
Ieri h: 14:50 sereno Sereno 21 14 64 1019 10 N 3.7
Ieri h: 14:20 sereno Sereno 22 14 60 1019 10 N 5.5
Ieri h: 13:50 sereno Sereno 22 13 56 1019 10 N 3.7
Ieri h: 13:20 sereno Sereno 21 14 64 1020 10 N 3.7
Ieri h: 12:50 sereno Sereno 20 14 68 1020 10 N 5.5
Ieri h: 12:20 sereno Sereno 20 14 68 1021 10 N 1.8
Ieri h: 11:50 sereno Sereno 19 15 77 1021 10 N 3.7
Ieri h: 11:20 sereno Sereno 19 14 72 1021 10 N 3.7
Ieri h: 10:50 sereno Sereno 18 13 72 1021 10 N 1.8
Ieri h: 10:20 sereno Sereno 17 14 82 1021 10 N 3.7
Ieri h: 09:50 sereno Sereno 16 13 82 1021 10 N 5.5
Ieri h: 09:20 sereno Sereno 15 12 82 1021 10 N 7.4
Ieri h: 08:50 sereno Sereno 13 13 100 1021 10 N 9.3
Ieri h: 08:20 sereno Sereno 13 12 93 1021 10 N/NE 7.4
Ieri h: 07:50 sereno Sereno 13 11 87 1021 10 N 5.5
Ieri h: 07:20 sereno Sereno 13 12 93 1021 10 N 5.5
Ieri h: 06:50 sereno Sereno 12 11 93 1021 10 N 3.7
Ieri h: 06:20 sereno Sereno 13 12 93 1021 10 N 9.3
Ieri h: 05:50 sereno Sereno 13 12 93 1021 10 N 7.4
Ieri h: 05:20 sereno Sereno 13 12 93 1021 10 N 5.5
Ieri h: 04:50 sereno Sereno 13 12 93 1021 10 N 9.3